Location: Barcelona
(41.3830°N, 2.1830°E)
Time: 01:32:24
(UTC+02:00)

ISS - Pass Details

Date: 28 July 2019
Orbit: 410 x 420 km, 51.6° (Epoch: 19 August)

Event Time Altitude Azimuth Distance (km) Brightness Sun altitude
Rises 22:38:18 0° 307° (NW) 2,372 2.0 -14.1°
Reaches altitude 10° 22:40:56 10° 329° (NNW) 1,505 0.3 -14.5°
Maximum altitude 22:43:15 17° 12° (NNE) 1,146 -1.2 -14.8°
Drops below altitude 10° 22:45:33 10° 56° (NE) 1,499 -1.1 -15.1°
Enters shadow 22:46:21 - 64° (ENE) 1,731 -0.8 -15.2°
